AirNav   Duncan Aviation - Near you to keep you flying
 
 827 users online  

KBUM Butler Memorial Airport
Butler, Missouri, USA

GOING TO BUTLER?


FAA INFORMATION EFFECTIVE 26 JANUARY 2023

Location

FAA Identifier: BUM
Lat/Long: 38-17-23.1620N 094-20-24.4600W
38-17.386033N 094-20.407667W
38.2897672,-94.3401278
(estimated)
Elevation: 893.7 ft. / 272.4 m (surveyed)
Variation: 04E (1995)
From city: 2 miles N of BUTLER, MO
Time zone: UTC -6 (UTC -5 during Daylight Saving Time)
Zip code: 64730

Airport Operations

Airport use: Open to the public
Activation date: 11/1946
Control tower: no
ARTCC: KANSAS CITY CENTER
FSS: COLUMBIA FLIGHT SERVICE STATION
NOTAMs facility: COU (NOTAM-D service available)
Attendance: CONTINUOUS
Wind indicator: lighted
Segmented circle: no
Lights: SS-SR
Beacon: white-green (lighted land airport)
Operates sunset to sunrise.

Airport Communications

CTAF: 122.9
WX AWOS-3PT at LRY (19 nm N): 119.975 (816-380-5936)
  • APCH/DEP SVC PRVDD BY KANSAS CITY ARTCC ON FREQS 125.55/327.0 (BUTLER RCAG).

Nearby radio navigation aids

VOR radial/distance  VOR name  Freq  Var
BUMr074/7.1BUTLER VORTAC115.9007E

Airport Services

Fuel available: 100LL
Parking: tiedowns
Airframe service: MINOR
Powerplant service: MINOR
Bottled oxygen: NONE
Bulk oxygen: NONE

Runway Information

Runway 18/36

Dimensions: 3999 x 75 ft. / 1219 x 23 m
Surface: asphalt/rubberized friction seal coat, in good condition
Weight bearing capacity: 
Single wheel: 12.0
Runway edge lights: medium intensity
RUNWAY 18  RUNWAY 36
Latitude: 38-17.715275N38-17.056797N
Longitude: 094-20.393767W094-20.421572W
Elevation: 870.6 ft.892.7 ft.
Traffic pattern: leftleft
Runway heading: 178 magnetic, 182 true358 magnetic, 002 true
Markings: nonprecision, in good conditionnonprecision, in good condition
Touchdown point: yes, no lightsyes, no lights

Airport Ownership and Management from official FAA records

Ownership: Publicly-owned
Owner: CITY OF BUTLER
PO BOX 420
BUTLER, MO 64730
Phone 660-679-4182
Manager: MIKE WEST
PO BOX 420, 22 W OHIO
BUTLER, MO 64730
Phone 660-679-4013

Airport Operational Statistics

Aircraft based on the field: 18
Single engine airplanes: 17
Multi engine airplanes: 1
    
Aircraft operations: avg 133/week *
50% transient general aviation
46% local general aviation
3% air taxi
<1% military
* for 12-month period ending 31 December 2019

Additional Remarks

ULTRALIGHTS ON & INVOF ARPT.
TWO TWRS +195 FT & +411 FT; APRXLY 7000 FT & 14000 FT S OF RY 36 THLD.
FOR CD IF UNA TO CTC ON FSS FREQ, CTC KANSAS CITY ARTCC AT 913-254-8508.

Instrument Procedures

NOTE: All procedures below are presented as PDF files. If you need a reader for these files, you should download the free Adobe Reader.

NOT FOR NAVIGATION. Please procure official charts for flight.
FAA instrument procedures published for use from 26 January 2023 at 0901Z to 23 February 2023 at 0900z.

 
IAPs - Instrument Approach Procedures
RNAV (GPS) RWY 18   download
RNAV (GPS) RWY 36   download
VOR-A   download
NOTE: Special Take-Off Minimums/Departure Procedures apply   download (421KB)

Other nearby airports with instrument procedures:

KLRY - Lawrence Smith Memorial Airport (19 nm N)
KNVD - Nevada Municipal Airport (26 nm S)
K81 - Miami County Airport (31 nm NW)
KGLY - Clinton Regional Airport (31 nm E)
KFSK - Fort Scott Municipal Airport (36 nm SW)
 
Loc | Ops | Rwys | IFR | FBO | Links
Com | Nav | Svcs | Stats | Notes
Area around KBUM (Butler Memorial Airport)
 
Road maps at: MapQuest Bing Google
 
Aerial photo
WARNING: Photo may not be current or correct
Aerial photo of KBUM (Butler Memorial Airport)
Do you have a better or more recent aerial photo of Butler Memorial Airport that you would like to share? If so, please send us your photo.

 
Sectional chart

 
Airport distance calculator
Flying to Butler Memorial Airport? Find the distance to fly.

From to KBUM

Sunrise and sunset
Times for 27-Jan-2023
 Local
(UTC-6)
 Zulu
(UTC)
Morning civil twilight06:5912:59
Sunrise07:2713:27
Sunset17:3323:33
Evening civil twilight18:0100:01

Current date and time
Zulu (UTC)  28-Jan-2023 04:17:57
Local (UTC-6)  27-Jan-2023 22:17:57
 
METAR
KLRY 
19nm N 
280355Z AUTO 00000KT 10SM CLR 01/M01 A3004 RMK AO2
KGLY 
31nm E 
280355Z AUTO 17004KT 10SM CLR 02/M01 A3003 RMK AO2
KGVW 
34nm N 
280400Z AUTO 11019KT 10SM FEW070 FEW080 OVC090 16/10 A3027 RMK A01
KFSK 
36nm SW 
280355Z AUTO 15006KT 10SM CLR 03/00 A3002 RMK AO2 T00340001
KOJC 
38nm NW 
280353Z AUTO 09003KT 10SM CLR 04/M03 A3001 RMK AO2 SLP166 T00391028
TAF
KIXD 
41nm NW 
272012Z 2720/2818 25012G18KT P6SM FEW250 FM280200 VRB04KT P6SM BKN250 FM280700 11008KT P6SM OVC100 FM281200 16013G20KT P6SM SCT035 BKN060
KSZL 
46nm NE 
272122Z 2721/2901 22009KT 9999 FEW040 SCT200 QNH2980INS BECMG 2817/2818 20012G20KT 9999 BKN030 QNH2981INS TX09/2819Z TN00/2806Z LAST NO AMDS AFT 2722 NEXT 2917
NOTAMs
Click for the latest NOTAMs
NOTAMs are issued by the DoD/FAA and will open in a separate window not controlled by AirNav.

 

 
 

FBO, Fuel Providers, and Aircraft Ground Support

  
 Business Name 
 
 Contact 
 
 Services / Description 
 
Fuel Prices
 
Comments
  
Skydive Kansas City 816-529-5867
no information available

If you are affiliated with Skydive Kansas City and would like to show here your services, contact info, web link, logo, and more, click here
100LL
SS $5.50 
 Updated 06-Jan-2023
 
   write
SS=Self service
Update Fuel Prices
 

Would you like to see your business listed on this page?

 If your business provides an interesting product or service to pilots, flight crews, aircraft, or users of the Butler Memorial Airport, you should consider listing it here.  To start the listing process, click on the button below
 
Add a business
 

Other Pages about Butler Memorial Airport

Update a link
 
Copyright © AirNav, LLC. All rights reserved. Privacy Policy  Contact